Weather in Galveston

United States     29°17′48″N   94°48′12″W
temp.,
°C
wind,
m/s
gust,
m/s
humid.,
%
clouds,
%
prec.,
mm/h
press.,
hPa
HPBL,
m
18 may, tue
tue1801:00+25sse1014865 0.0 1010462
04:00+25sse8128898 0.0 1010513
07:00+25sse71192100 0.1 1011613
10:00+25sse698565 2.4 1012335
13:00+26sse8128471 5.3 1012438
16:00+26se7119062 0.0 1010545
19:00+26se812881 2.5 1009434
22:00+26se101488100 1.9 1010471
19 may, wed
wed1901:00+25sse11158923 5.8 1011556
04:00+25sse1014905 2.7 1010599
07:00+25sse1014909 2.9 1011747
10:00+25se10139046 0.4 1012682
13:00+26se1014892 0.5 1012594
16:00+26ese11159098 0.2 1010632
19:00+25se11158783 1.4 1010615
22:00+23ssw5787100 10.3 1012419
20 may, thu
thu2001:00+23se8884100 16.6 1013327
04:00+23se91291100 3.4 1012446
07:00+25sse91282100 10.4 1012712
10:00+25se91185100 9.3 1013559
13:00+24se5683100 11.5 1014505
16:00+25ese7118699 0.8 1012830
19:00+24sse998987 1.6 1012545
22:00+25se10138126 0.0 1015856
21 may, fri
fri2101:00+24se81286100 0.2 1015740
04:00+25ese111387100 5.9 1015781
07:00+25se101285100 13.5 1016729
10:00+25ese81081100 6.2 1018478
13:00+25ese111285100 8.4 1019681
16:00+24ese121489100 4.1 1018829
19:00+24se141793100 18.3 1018910
22:00+24ese131689100 3.1 1020973
22 may, sat
sat2201:00+25ese111585100 3.9 10201062
04:00+25ese111385100 0.6 1019887
07:00+25ese11138388 1.5 1020892
10:00+25ese1112827 0.7 1021910
13:00+25ese10138255 1.0 1021971
16:00+25ese11128289 0.6 1020928
19:00+25ese10128346 1.3 1020862
22:00+25ese101384100 0.1 1021851